Location: Six Mile Lake
(44.9000°N, 79.7170°W)
Time: 03:34:03
(UTC-04:00)

JY1SAT - Pass Details

Date: 07 July 2022
Orbit: 564 x 586 km, 97.6° (Epoch: 07 August)

Event Time Altitude Azimuth Distance (km) Brightness Sun altitude
Exits shadow 23:01:45 19° 186° (S) 1,399 ? -15.2°
Maximum altitude 23:04:32 57° 260° (W) 695 ? -15.5°
Drops below altitude 10° 23:08:38 10° 339° (NNW) 1,916 ? -15.9°
Sets 23:10:50 0° 344° (NNW) 2,818 ? -16.1°
